Content
SEND FEEDBACK

Daily
Averages
Monthly
Summary
Canada

EVANSTON, NOVA SCOTIA


Home > North America > Canada > Nova Scotia
Elevation: 217 feet     Latitude: 45 31N     Longitude: 061 15W

WEATHER
 
SELECT A DAY
Number of Records: 102,264;   Date Range: 6/19/04 - 7/28/14
 
SHARE

PRINT THIS DATA

[ ← Previous Day ]
WEATHER ALMANAC - DECEMBER 25, 2013
[ Next Day → ]
[ °C ]   °F
Weather ElementAverageHighLow
Temperature21.2 °F27 °F (2:00 am) (6:37 am)
Dewpoint18.6 °F26.6 °F (12:12 am) (7:00 pm)
Humidity89.5 %100 % (12:12 am)75 % (8:00 pm)
Barometer30.05 in30.42 in (11:00 pm)29.79 in (1:00 am)
Wind Speed9.2 mph17.3 mph (1:29 pm)
Wind Gust29.9 mph (5:35 pm)
Weather ElementAverage
Visibility6.3 mi
Wind DirectionWNW (281.1 °)

Weather ElementTotal
Precipitation---
Heating Degree Days51.5 (Base 65)
Averaged from 105 records on December 25, 2013
WEATHER CONDITIONS BREAKOUT
WIND DIRECTION BREAKOUT
WEATHER BY HOUR - DECEMBER 25, 2013
[ °C ]   °F
Local TimeTemperatureDewpointHumidityBarometerVisibilityWind DirectionWind SpeedGust SpeedPrecipitationEventsConditions
12:12 AM26.6 °F26.6 °F100 %29.80 in2.5 miNE (40°)6.9 mphSnowLight Snow
1:00 AM26.6 °F26.6 °F100 %29.79 in2.5 miNNE (20°)4.6 mphSnowLight Snow
1:31 AM26.6 °F26.6 °F100 %29.80 in2.0 miNorth (350°)4.6 mphSnowLight Snow
1:32 AM26.6 °F26.6 °F100 %29.80 in2.0 miNorth (350°)3.5 mphSnowLight Snow
1:38 AM26.6 °F26.6 °F100 %29.80 in3.0 miNorth (360°)4.6 mphSnowLight Snow
1:42 AM26.6 °F26.6 °F100 %29.80 in4.0 miNorth (350°)6.9 mphSnowLight Snow
1:45 AM26.6 °F26.6 °F100 %29.80 in6.0 miNorth (350°)5.8 mphSnowLight Snow
2:00 AM27.0 °F26.0 °F95 %29.80 in10.0 miNorth (10°)5.8 mphSnowLight Snow
2:00 AM26.6 °F26.6 °F100 %29.80 in9.0 miNorth (10°)5.8 mphSnowLight Snow
2:24 AM26.6 °F26.6 °F100 %29.81 in9.0 miNorth (10°)3.5 mphSnowLight Snow
2:34 AM26.6 °F26.6 °F100 %29.81 in5.0 miNorth (10°)3.5 mphSnowLight Snow
2:52 AM26.6 °F26.6 °F100 %29.82 in2.5 miNE (40°)4.6 mphSnowLight Snow
3:00 AM26.6 °F26.6 °F100 %29.82 in1.5 miNNE (30°)6.9 mphSnowLight Snow
3:03 AM26.6 °F26.6 °F100 %29.82 in1.8 miNorth (10°)9.2 mphSnowLight Snow
3:09 AM26.6 °F24.8 °F93 %29.81 in3.0 miNorth (10°)6.9 mphSnowLight Snow
3:26 AM26.6 °F24.8 °F93 %29.82 in6.0 miNNE (20°)4.6 mphSnowLight Snow
3:27 AM26.6 °F24.8 °F93 %29.82 in6.0 miNorth (10°)3.5 mphSnowLight Snow
3:50 AM24.8 °F24.8 °F100 %29.83 in9.0 miNNE (30°)6.9 mphSnowLight Snow
4:00 AM24.8 °F23.0 °F93 %29.83 in9.0 miNNE (30°)5.8 mphSnowLight Snow
5:00 AM23.0 °F23.0 °F100 %29.86 in9.0 miNorth (350°)4.6 mphSnowLight Snow
5:13 AM23.0 °F21.2 °F93 %29.86 in9.0 miNorth (10°)3.5 mphOvercast
5:27 AM23.0 °F21.2 °F93 %29.87 in9.0 miNorth (350°)3.5 mphSnowLight Snow
5:37 AM23.0 °F21.2 °F93 %29.88 in9.0 miNW (320°)4.6 mphOvercast
5:55 AM23.0 °F21.2 °F93 %29.89 in9.0 miNW (320°)5.8 mphOvercast
6:00 AM23.0 °F21.2 °F93 %29.89 in9.0 miNW (320°)4.6 mphOvercast
6:04 AM23.0 °F21.2 °F93 %29.89 in9.0 miNNW (330°)5.8 mphSnowLight Snow
6:13 AM23.0 °F21.2 °F93 %29.90 in5.0 miNNW (340°)6.9 mphSnowLight Snow
6:16 AM23.0 °F21.2 °F93 %29.90 in6.0 miNNW (340°)6.9 mphSnowLight Snow
6:24 AM23.0 °F21.2 °F93 %29.91 in8.0 miNNW (340°)9.2 mphSnowLight Snow
6:28 AM23.0 °F21.2 °F93 %29.91 in9.0 miNNW (330°)9.2 mphSnowLight Snow
6:37 AM0.0 °F0.0 °F7.0 miNNW (340°)8.1 mph
6:38 AM23.0 °F21.2 °F93 %29.91 in7.0 miNNW (340°)8.1 mphSnowLight Snow
6:39 AM23.0 °F21.2 °F93 %29.91 in6.0 miNNW (340°)8.1 mphSnowLight Snow
6:41 AM23.0 °F21.2 °F93 %29.92 in5.0 miNNW (340°)9.2 mphSnowLight Snow
6:57 AM23.0 °F21.2 °F93 %29.93 in4.0 miNorth (350°)8.1 mphSnowLight Snow
7:00 AM23.0 °F21.2 °F93 %29.93 in4.0 miNorth (350°)6.9 mphSnowLight Snow
7:03 AM23.0 °F21.2 °F93 %29.93 in6.0 miNorth (360°)5.8 mphSnowLight Snow
7:36 AM23.0 °F21.2 °F93 %29.94 in9.0 miNorth (350°)3.5 mphSnowLight Snow
7:54 AM23.0 °F21.2 °F93 %29.96 in9.0 miNNW (340°)4.6 mphOvercast
7:58 AM23.0 °F21.2 °F93 %29.96 in9.0 miNNW (340°)3.5 mphOvercast
8:00 AM22.0 °F21.0 °F92 %29.96 in10.0 miNNW (340°)3.5 mphOvercast
8:00 AM23.0 °F21.2 °F93 %29.96 in9.0 miVariable2.3 mphOvercast
8:13 AM23.0 °F21.2 °F93 %29.98 in9.0 miNW (320°)5.8 mphSnowLight Snow
8:25 AM23.0 °F19.4 °F86 %29.98 in9.0 miNNW (330°)6.9 mphOvercast
8:44 AM23.0 °F21.2 °F93 %29.99 in9.0 miNW (320°)5.8 mphSnowLight Snow
9:00 AM23.0 °F21.2 °F93 %30.01 in9.0 miNNW (330°)6.9 mph17.3 mphSnowLight Snow
9:09 AM23.0 °F19.4 °F86 %30.01 in9.0 miNW (320°)5.8 mphSnowLight Snow
9:14 AM23.0 °F19.4 °F86 %30.01 in9.0 miNW (320°)9.2 mphOvercast
9:22 AM23.0 °F19.4 °F86 %30.01 in9.0 miNNW (330°)6.9 mphSnowLight Snow
9:54 AM23.0 °F19.4 °F86 %30.04 in9.0 miNNW (340°)8.1 mphSnowLight Snow
10:00 AM23.0 °F19.4 °F86 %30.04 in9.0 miNNW (330°)9.2 mph18.4 mphSnowLight Snow
10:48 AM21.2 °F19.4 °F93 %30.07 in9.0 miNW (320°)11.5 mph19.6 mphSnowLight Snow
11:00 AM21.2 °F19.4 °F93 %30.07 in8.0 miNW (320°)9.2 mph23.0 mphSnowLight Snow
12:00 PM21.2 °F17.6 °F86 %30.07 in9.0 miNNW (330°)8.1 mph17.3 mphSnowLight Snow
12:25 PM21.2 °F17.6 °F86 %30.08 in5.0 miNNW (330°)10.4 mph20.7 mphSnowLight Snow
12:40 PM21.2 °F15.8 °F80 %30.09 in6.0 miNW (320°)13.8 mph20.7 mphSnowLight Snow
1:00 PM19.4 °F15.8 °F86 %30.09 in9.0 miNNW (330°)9.2 mph18.4 mphSnowLight Snow
1:02 PM19.4 °F17.6 °F93 %30.10 in6.0 miNNW (330°)8.1 mph18.4 mphSnowLight Snow
1:03 PM19.4 °F17.6 °F93 %30.10 in5.0 miNNW (330°)8.1 mph18.4 mphSnowLight Snow
1:06 PM19.4 °F15.8 °F86 %30.10 in4.0 miNNW (330°)13.8 mph19.6 mphSnowLight Snow
1:16 PM19.4 °F15.8 °F86 %30.10 in2.5 miNNW (330°)12.7 mph19.6 mphSnowLight Snow
1:24 PM19.4 °F15.8 °F86 %30.11 in3.0 miNW (320°)13.8 mph20.7 mphSnowLight Snow
1:29 PM19.4 °F15.8 °F86 %30.11 in2.2 miNNW (330°)17.3 mph24.2 mphSnowLight Snow
1:30 PM19.4 °F15.8 °F86 %30.11 in1.8 miNNW (330°)16.1 mph24.2 mphSnowLight Snow
1:38 PM19.4 °F15.8 °F86 %30.11 in2.0 miNNW (330°)9.2 mph24.2 mphSnowLight Snow
1:40 PM19.4 °F15.8 °F86 %30.11 in3.0 miNNW (330°)12.7 mph23.0 mphSnowLight Snow
1:53 PM19.4 °F15.8 °F86 %30.12 in3.0 miNW (320°)13.8 mph20.7 mphSnowLight Snow
1:54 PM19.4 °F15.8 °F86 %30.12 in2.2 miNW (310°)13.8 mph21.9 mphSnowLight Snow
2:00 PM19.0 °F16.0 °F82 %30.12 in2.0 miNW (320°)13.8 mphSnowLight Snow
2:00 PM19.4 °F15.8 °F86 %30.12 in1.8 miNW (320°)13.8 mph23.0 mphSnowLight Snow
2:07 PM19.4 °F15.8 °F86 %30.13 in2.2 miNW (320°)11.5 mph25.3 mphSnowLight Snow
2:11 PM19.4 °F15.8 °F86 %30.13 in3.0 miNW (320°)13.8 mph25.3 mphSnowLight Snow
2:16 PM19.4 °F14.0 °F80 %30.13 in6.0 miNW (320°)13.8 mph28.8 mphSnowLight Snow
2:23 PM19.4 °F14.0 °F80 %30.14 in4.0 miNW (320°)11.5 mph24.2 mphSnowLight Snow
2:26 PM19.4 °F14.0 °F80 %30.14 in2.5 miNW (320°)15.0 mph24.2 mphSnowLight Snow
2:30 PM17.6 °F15.8 °F93 %30.14 in1.5 miNW (320°)15.0 mph24.2 mphSnowLight Snow
2:43 PM19.4 °F15.8 °F86 %30.15 in3.0 miNW (320°)11.5 mph26.5 mphSnowLight Snow
2:46 PM19.4 °F15.8 °F86 %30.16 in6.0 miNNW (330°)10.4 mph26.5 mphSnowLight Snow
3:00 PM17.6 °F14.0 °F86 %30.16 in8.0 miNW (320°)12.7 mph23.0 mphSnowLight Snow
3:02 PM17.6 °F15.8 °F93 %30.16 in5.0 miNW (320°)12.7 mph23.0 mphSnowLight Snow
3:14 PM17.6 °F14.0 °F86 %30.17 in8.0 miNW (310°)15.0 mph25.3 mphSnowLight Snow
3:37 PM17.6 °F14.0 °F86 %30.19 in5.0 miNW (320°)13.8 mph24.2 mphSnowLight Snow
3:59 PM17.6 °F12.2 °F79 %30.21 in7.0 miNW (310°)17.3 mph24.2 mphSnowLight Snow
4:00 PM17.6 °F12.2 °F79 %30.21 in8.0 miNW (320°)16.1 mph24.2 mphSnowLight Snow
5:00 PM17.6 °F14.0 °F86 %30.25 in9.0 miNW (310°)15.0 mph28.8 mphSnowLight Snow
5:14 PM17.6 °F14.0 °F86 %30.26 in9.0 miNNW (330°)6.9 mph24.2 mphSnowLight Snow
5:16 PM17.6 °F14.0 °F86 %30.26 in9.0 miNW (320°)9.2 mph24.2 mphSnowLight Snow
5:25 PM17.6 °F14.0 °F86 %30.27 in5.0 miNW (320°)12.7 mph19.6 mphSnowLight Snow
5:35 PM17.6 °F14.0 °F86 %30.28 in6.0 miNW (320°)13.8 mph29.9 mphSnowLight Snow
5:54 PM17.6 °F14.0 °F86 %30.29 in5.0 miNW (320°)12.7 mph26.5 mphSnowLight Snow
6:00 PM17.6 °F14.0 °F86 %30.29 in3.0 miNW (320°)13.8 mph26.5 mphSnowLight Snow
6:12 PM17.6 °F12.2 °F79 %30.30 in7.0 miNW (320°)17.3 mph25.3 mphSnowLight Snow
6:30 PM17.6 °F14.0 °F86 %30.31 in5.0 miNW (320°)15.0 mph26.5 mphSnowLight Snow
6:42 PM17.6 °F12.2 °F79 %30.31 in6.0 miNNW (330°)12.7 mph25.3 mphSnowLight Snow
6:49 PM17.6 °F14.0 °F86 %30.32 in5.0 miNW (320°)11.5 mph26.5 mphSnowLight Snow
6:51 PM17.6 °F14.0 °F86 %30.32 in6.0 miNW (310°)13.8 mph26.5 mphSnowLight Snow
7:00 PM17.6 °F12.2 °F79 %30.32 in9.0 miNW (310°)15.0 mph27.6 mphSnowLight Snow
8:00 PM18.0 °F13.0 °F75 %30.36 in10.0 miNNW (330°)11.5 mphSnowLight Snow
8:00 PM17.6 °F14.0 °F86 %30.36 in9.0 miNNW (330°)10.4 mph23.0 mphSnowLight Snow
9:00 PM19.4 °F14.0 °F80 %30.38 in9.0 miNW (320°)10.4 mph20.7 mphSnowLight Snow
9:37 PM19.4 °F15.8 °F86 %30.39 in9.0 miNW (310°)9.2 mph20.7 mphSnowLight Snow
10:00 PM19.4 °F14.0 °F80 %30.40 in9.0 miNW (320°)11.5 mph19.6 mphSnowLight Snow
10:05 PM19.4 °F14.0 °F80 %30.40 in9.0 miNW (320°)9.2 mph23.0 mphSnowLight Snow
10:20 PM19.4 °F15.8 °F86 %30.40 in9.0 miNNW (340°)8.1 mphSnowLight Snow
11:00 PM19.4 °F15.8 °F86 %30.42 in9.0 miNNW (330°)6.9 mphSnowLight Snow
Hourly data recorded from CYPD, located miles away from Evanston, Nova Scotia







STORIES FROM OUR PARTNERS